| time (UTC) | temp F | wind direction | speed MPH | gust MPH | rain 1hr in | rain 24hr in | rain mn in | humidity % | barometer mb |
| 20260504234538 | 67 | 225 | 26.0 | 32.0 | 0.00 | 0.00 | 0.00 | 59 | 993.9 |
| 20260504234025 | 67 | 226 | 25.0 | 29.0 | 0.00 | 0.00 | 0.00 | 60 | 994.0 |
| 20260504233535 | 67 | 233 | 24.0 | 31.0 | 0.00 | 0.00 | 0.00 | 59 | 994.1 |
| 20260504233025 | 67 | 234 | 25.0 | 33.0 | 0.00 | 0.00 | 0.00 | 58 | 994.1 |
| 20260504232530 | 67 | 226 | 27.0 | 34.0 | 0.00 | 0.00 | 0.00 | 59 | 994.2 |
| 20260504232049 | 67 | 236 | 29.0 | 34.0 | 0.00 | 0.00 | 0.00 | 59 | 994.2 |
| 20260504231540 | 67 | 229 | 24.0 | 29.0 | 0.00 | 0.00 | 0.00 | 59 | 994.3 |
| 20260504231032 | 66 | 235 | 23.0 | 27.0 | 0.00 | 0.00 | 0.00 | 62 | 994.4 |
| 20260504230535 | 67 | 231 | 23.0 | 27.0 | 0.00 | 0.00 | 0.00 | 61 | 994.6 |
| 20260504230028 | 67 | 232 | 23.0 | 27.0 | 0.00 | 0.00 | 0.00 | 60 | 994.7 |
| 20260504225603 | 67 | 238 | 24.0 | 28.0 | 0.00 | 0.00 | 0.00 | 61 | 994.7 |
| 20260504225036 | 68 | 231 | 23.0 | 29.0 | 0.00 | 0.00 | 0.00 | 58 | 994.8 |
| 20260504224545 | 68 | 234 | 24.0 | 30.0 | 0.00 | 0.00 | 0.00 | 57 | 994.8 |
| 20260504224037 | 68 | 235 | 24.0 | 30.0 | 0.00 | 0.00 | 0.00 | 56 | 994.8 |
| 20260504223523 | 67 | 234 | 25.0 | 28.0 | 0.00 | 0.00 | 0.00 | 58 | 994.9 |
| 20260504223101 | 67 | 228 | 23.0 | 28.0 | 0.00 | 0.00 | 0.00 | 60 | 995.0 |
| 20260504222526 | 66 | 235 | 23.0 | 27.0 | 0.00 | 0.00 | 0.00 | 63 | 995.1 |
| 20260504222035 | 66 | 232 | 21.0 | 24.0 | 0.00 | 0.00 | 0.00 | 65 | 995.2 |
| 20260504221540 | 65 | 236 | 20.0 | 23.0 | 0.00 | 0.00 | 0.00 | 66 | 995.3 |
| 20260504221033 | 65 | 241 | 20.0 | 24.0 | 0.00 | 0.00 | 0.00 | 67 | 995.4 |
| 20260504220538 | 66 | 242 | 21.0 | 25.0 | 0.00 | 0.00 | 0.00 | 67 | 995.4 |
| 20260504220059 | 66 | 239 | 22.0 | 26.0 | 0.00 | 0.00 | 0.00 | 65 | 995.4 |
| 20260504215532 | 66 | 245 | 22.0 | 28.0 | 0.00 | 0.00 | 0.00 | 64 | 995.4 |
| 20260504215025 | 66 | 239 | 23.0 | 28.0 | 0.00 | 0.00 | 0.00 | 64 | 995.4 |
| 20260504214531 | 66 | 241 | 21.0 | 24.0 | 0.00 | 0.00 | 0.00 | 63 | 995.4 |
| 20260504214104 | 66 | 233 | 19.0 | 22.0 | 0.00 | 0.00 | 0.00 | 67 | 995.4 |
| 20260504213531 | 67 | 240 | 20.0 | 26.0 | 0.00 | 0.00 | 0.00 | 64 | 995.4 |
| 20260504212542 | 66 | 233 | 20.0 | 25.0 | 0.00 | 0.00 | 0.00 | 65 | 995.4 |
| 20260504212031 | 66 | 235 | 21.0 | 25.0 | 0.00 | 0.00 | 0.00 | 65 | 995.5 |
| 20260504211538 | 66 | 246 | 19.0 | 23.0 | 0.00 | 0.00 | 0.00 | 66 | 995.5 |
| 20260504211044 | 66 | 246 | 20.0 | 23.0 | 0.00 | 0.00 | 0.00 | 66 | 995.5 |
| 20260504210557 | 67 | 238 | 21.0 | 24.0 | 0.00 | 0.00 | 0.00 | 65 | 995.6 |
| 20260504210030 | 67 | 245 | 20.0 | 24.0 | 0.00 | 0.00 | 0.00 | 65 | 995.6 |
| 20260504205534 | 67 | 243 | 21.0 | 25.0 | 0.00 | 0.00 | 0.00 | 63 | 995.6 |
| 20260504205026 | 67 | 240 | 19.0 | 26.0 | 0.00 | 0.00 | 0.00 | 63 | 995.6 |
| 20260504204535 | 68 | 241 | 22.0 | 26.0 | 0.00 | 0.00 | 0.00 | 61 | 995.6 |
| 20260504204134 | 67 | 238 | 21.0 | 28.0 | 0.00 | 0.00 | 0.00 | 63 | 995.6 |
| 20260504203542 | 67 | 243 | 21.0 | 28.0 | 0.00 | 0.00 | 0.00 | 63 | 995.6 |
| 20260504203034 | 67 | 237 | 20.0 | 26.0 | 0.00 | 0.00 | 0.00 | 63 | 995.7 |
| 20260504202541 | 67 | 239 | 23.0 | 29.0 | 0.00 | 0.00 | 0.00 | 62 | 995.7 |
| 20260504202102 | 67 | 239 | 23.0 | 29.0 | 0.00 | 0.00 | 0.00 | 62 | 995.8 |
| 20260504201530 | 67 | 237 | 22.0 | 30.0 | 0.00 | 0.00 | 0.00 | 60 | 995.7 |
| 20260504201024 | 68 | 238 | 24.0 | 31.0 | 0.00 | 0.00 | 0.00 | 59 | 995.7 |
| 20260504200531 | 67 | 231 | 25.0 | 31.0 | 0.00 | 0.00 | 0.00 | 58 | 995.7 |
| 20260504200040 | 67 | 232 | 21.0 | 30.0 | 0.00 | 0.00 | 0.00 | 62 | 995.8 |
| 20260504195526 | 68 | 235 | 25.0 | 30.0 | 0.00 | 0.00 | 0.00 | 58 | 995.8 |
| 20260504195038 | 68 | 227 | 26.0 | 29.0 | 0.00 | 0.00 | 0.00 | 58 | 995.8 |
| 20260504194522 | 68 | 238 | 23.0 | 29.0 | 0.00 | 0.00 | 0.00 | 59 | 995.9 |
| 20260504194037 | 68 | 235 | 24.0 | 29.0 | 0.00 | 0.00 | 0.00 | 59 | 996.0 |
| 20260504193524 | 68 | 230 | 23.0 | 28.0 | 0.00 | 0.00 | 0.00 | 61 | 996.0 |
| 20260504193102 | 68 | 239 | 24.0 | 28.0 | 0.00 | 0.00 | 0.00 | 60 | 996.0 |
| 20260504192543 | 68 | 236 | 23.0 | 27.0 | 0.00 | 0.00 | 0.00 | 61 | 996.1 |
| 20260504192034 | 68 | 234 | 22.0 | 28.0 | 0.00 | 0.00 | 0.00 | 62 | 996.1 |
| 20260504191521 | 68 | 240 | 24.0 | 30.0 | 0.00 | 0.00 | 0.00 | 61 | 996.1 |
| 20260504191032 | 68 | 241 | 25.0 | 33.0 | 0.00 | 0.00 | 0.00 | 59 | 996.2 |
| 20260504190541 | 69 | 233 | 24.0 | 33.0 | 0.00 | 0.00 | 0.00 | 59 | 996.3 |
| 20260504185600 | 69 | 237 | 24.0 | 30.0 | 0.00 | 0.00 | 0.00 | 58 | 996.2 |
| 20260504185030 | 69 | 232 | 25.0 | 30.0 | 0.00 | 0.00 | 0.00 | 56 | 996.2 |
| 20260504184538 | 69 | 228 | 26.0 | 30.0 | 0.00 | 0.00 | 0.00 | 56 | 996.2 |
| 20260504184053 | 69 | 233 | 23.0 | 32.0 | 0.00 | 0.00 | 0.00 | 58 | 996.2 |
| 20260504183539 | 68 | 229 | 28.0 | 32.0 | 0.00 | 0.00 | 0.00 | 56 | 996.3 |
| 20260504183028 | 68 | 228 | 25.0 | 34.0 | 0.00 | 0.00 | 0.00 | 59 | 996.4 |
| 20260504182532 | 68 | 231 | 28.0 | 34.0 | 0.00 | 0.00 | 0.00 | 61 | 996.4 |
| 20260504182026 | 68 | 234 | 25.0 | 32.0 | 0.00 | 0.00 | 0.00 | 61 | 996.5 |
| 20260504181533 | 67 | 235 | 24.0 | 31.0 | 0.00 | 0.00 | 0.00 | 60 | 996.6 |
| 20260504181025 | 67 | 230 | 21.0 | 31.0 | 0.00 | 0.00 | 0.00 | 65 | 996.8 |
| 20260504180533 | 67 | 235 | 21.0 | 29.0 | 0.00 | 0.00 | 0.00 | 64 | 996.9 |
| 20260504180025 | 67 | 231 | 21.0 | 29.0 | 0.00 | 0.00 | 0.00 | 65 | 997.0 |
| 20260504175559 | 67 | 229 | 23.0 | 27.0 | 0.00 | 0.00 | 0.00 | 61 | 997.0 |
| 20260504175045 | 67 | 231 | 21.0 | 27.0 | 0.00 | 0.00 | 0.00 | 64 | 997.1 |
| 20260504174522 | 66 | 223 | 19.0 | 25.0 | 0.00 | 0.00 | 0.00 | 65 | 997.2 |
| 20260504174031 | 67 | 224 | 21.0 | 25.0 | 0.00 | 0.00 | 0.00 | 64 | 997.2 |
| 20260504173535 | 66 | 228 | 21.0 | 26.0 | 0.00 | 0.00 | 0.00 | 63 | 997.3 |
| 20260504173100 | 67 | 233 | 21.0 | 26.0 | 0.00 | 0.00 | 0.00 | 62 | 997.4 |
| 20260504172549 | 66 | 229 | 21.0 | 26.0 | 0.00 | 0.00 | 0.00 | 63 | 997.4 |
| 20260504172041 | 66 | 225 | 21.0 | 27.0 | 0.00 | 0.00 | 0.00 | 64 | 997.5 |
| 20260504171029 | 66 | 231 | 22.0 | 28.0 | 0.00 | 0.00 | 0.00 | 64 | 997.6 |
| 20260504170541 | 66 | 220 | 23.0 | 28.0 | 0.00 | 0.00 | 0.00 | 62 | 997.5 |
| 20260504151026 | 60 | 224 | 21.0 | 25.0 | 0.00 | 0.00 | 0.00 | 74 | 999.4 |
| 20260504150532 | 59 | 228 | 19.0 | 23.0 | 0.00 | 0.00 | 0.00 | 76 | 999.4 |
| 20260504141040 | 57 | 226 | 22.0 | 28.0 | 0.00 | 0.00 | 0.00 | 79 | 999.8 |
| 20260504140549 | 57 | 231 | 24.0 | 28.0 | 0.00 | 0.00 | 0.00 | 78 | 999.8 |
| 20260504140104 | 57 | 229 | 22.0 | 28.0 | 0.00 | 0.00 | 0.00 | 79 | 999.8 |
| 20260504130532 | 55 | 225 | 20.0 | 26.0 | 0.00 | 0.00 | 0.00 | 80 | 1000.1 |
| 20260504110537 | 51 | 218 | 13.0 | 15.0 | 0.00 | 0.00 | 0.00 | 85 | 1000.5 |
| 20260504100531 | 52 | 230 | 14.0 | 17.0 | 0.00 | 0.00 | 0.00 | 84 | 1000.8 |
| 20260504081534 | 52 | 222 | 14.0 | 19.0 | 0.00 | 0.00 | 0.00 | 81 | 1001.5 |
| 20260504081028 | 52 | 222 | 15.0 | 21.0 | 0.00 | 0.00 | 0.00 | 81 | 1001.4 |
| 20260504080537 | 52 | 222 | 16.0 | 21.0 | 0.00 | 0.00 | 0.00 | 81 | 1001.3 |
| 20260504050601 | 53 | 220 | 21.0 | 27.0 | 0.00 | 0.00 | 0.00 | 78 | 1003.0 |
| 20260504045522 | 53 | 218 | 20.0 | 26.0 | 0.00 | 0.00 | 0.00 | 78 | 1002.9 |
| 20260504045054 | 53 | 218 | 21.0 | 27.0 | 0.00 | 0.00 | 0.00 | 78 | 1003.2 |
| 20260504044529 | 53 | 222 | 23.0 | 27.0 | 0.00 | 0.00 | 0.00 | 78 | 1003.2 |
| 20260504044034 | 53 | 222 | 21.0 | 29.0 | 0.00 | 0.00 | 0.00 | 79 | 1003.2 |
| 20260504043525 | 54 | 216 | 22.0 | 29.0 | 0.00 | 0.00 | 0.00 | 80 | 1003.2 |
| 20260504043034 | 54 | 223 | 22.0 | 29.0 | 0.00 | 0.00 | 0.00 | 80 | 1003.5 |
| 20260504042522 | 54 | 225 | 21.0 | 29.0 | 0.00 | 0.00 | 0.00 | 81 | 1003.7 |
| 20260504042029 | 54 | 235 | 24.0 | 29.0 | 0.00 | 0.00 | 0.00 | 80 | 1004.0 |
| 20260504041602 | 54 | 241 | 23.0 | 28.0 | 0.00 | 0.00 | 0.00 | 80 | 1003.9 |
| 20260504041042 | 54 | 238 | 23.0 | 27.0 | 0.00 | 0.00 | 0.00 | 79 | 1003.9 |
| 20260504040524 | 54 | 231 | 23.0 | 27.0 | 0.00 | 0.00 | 0.00 | 79 | 1003.9 |
| 20260504040035 | 54 | 235 | 22.0 | 26.0 | 0.00 | 0.00 | 0.00 | 78 | 1004.1 |
| 20260504035040 | 54 | 240 | 22.0 | 25.0 | 0.00 | 0.00 | 0.00 | 77 | 1004.2 |
| 20260504034529 | 54 | 241 | 20.0 | 24.0 | 0.00 | 0.00 | 0.00 | 76 | 1004.2 |
| 20260504034042 | 54 | 237 | 19.0 | 24.0 | 0.00 | 0.00 | 0.00 | 76 | 1004.1 |
| 20260504033528 | 54 | 230 | 20.0 | 25.0 | 0.00 | 0.00 | 0.00 | 76 | 1003.8 |
| 20260504033041 | 54 | 229 | 21.0 | 29.0 | 0.00 | 0.00 | 0.00 | 76 | 1003.7 |
| 20260504032530 | 54 | 223 | 20.0 | 25.0 | 0.00 | 0.00 | 0.00 | 76 | 1003.7 |
| 20260504032028 | 55 | 225 | 20.0 | 25.0 | 0.00 | 0.00 | 0.00 | 75 | 1003.8 |
| 20260504031536 | 55 | 222 | 21.0 | 28.0 | 0.00 | 0.00 | 0.00 | 75 | 1003.8 |
| 20260504031030 | 55 | 226 | 24.0 | 28.0 | 0.00 | 0.00 | 0.00 | 75 | 1003.9 |
| 20260504030605 | 55 | 226 | 20.0 | 28.0 | 0.00 | 0.00 | 0.00 | 75 | 1003.9 |
| 20260504030038 | 55 | 218 | 22.0 | 28.0 | 0.00 | 0.00 | 0.00 | 75 | 1003.9 |
| 20260504025551 | 55 | 220 | 22.0 | 27.0 | 0.00 | 0.00 | 0.00 | 75 | 1004.0 |
| 20260504025043 | 55 | 225 | 22.0 | 27.0 | 0.00 | 0.00 | 0.00 | 75 | 1004.0 |
| 20260504024528 | 55 | 235 | 20.0 | 28.0 | 0.00 | 0.00 | 0.00 | 76 | 1004.0 |
| 20260504024040 | 55 | 218 | 21.0 | 28.0 | 0.00 | 0.00 | 0.00 | 75 | 1004.1 |
| 20260504023529 | 55 | 226 | 20.0 | 27.0 | 0.00 | 0.00 | 0.00 | 75 | 1004.1 |
| 20260504022540 | 55 | 228 | 20.0 | 25.0 | 0.00 | 0.00 | 0.00 | 75 | 1004.2 |
| 20260504022033 | 55 | 221 | 20.0 | 28.0 | 0.00 | 0.00 | 0.00 | 75 | 1004.2 |
| 20260504021526 | 56 | 230 | 24.0 | 29.0 | 0.00 | 0.00 | 0.00 | 75 | 1004.1 |
| 20260504021031 | 56 | 234 | 24.0 | 29.0 | 0.00 | 0.00 | 0.00 | 74 | 1004.1 |
| 20260504020523 | 56 | 228 | 23.0 | 32.0 | 0.00 | 0.00 | 0.00 | 74 | 1004.1 |
| 20260504020034 | 56 | 229 | 25.0 | 32.0 | 0.00 | 0.00 | 0.00 | 73 | 1004.0 |
| 20260504015522 | 56 | 223 | 24.0 | 32.0 | 0.00 | 0.00 | 0.00 | 74 | 1004.0 |
| 20260504015034 | 56 | 228 | 24.0 | 29.0 | 0.00 | 0.00 | 0.00 | 74 | 1003.9 |
| 20260504014547 | 56 | 223 | 22.0 | 35.0 | 0.00 | 0.00 | 0.00 | 74 | 1003.9 |
| 20260504014109 | 56 | 220 | 21.0 | 35.0 | 0.00 | 0.00 | 0.00 | 75 | 1003.9 |
| 20260504013558 | 56 | 238 | 29.0 | 35.0 | 0.00 | 0.00 | 0.00 | 73 | 1004.0 |
| 20260504013057 | 56 | 242 | 27.0 | 33.0 | 0.00 | 0.00 | 0.00 | 74 | 1004.0 |
| 20260504012523 | 56 | 237 | 24.0 | 29.0 | 0.00 | 0.00 | 0.00 | 75 | 1004.0 |
| 20260504012031 | 56 | 225 | 21.0 | 29.0 | 0.00 | 0.00 | 0.00 | 76 | 1004.0 |
| 20260504011541 | 56 | 231 | 22.0 | 35.0 | 0.00 | 0.00 | 0.00 | 76 | 1003.9 |
| 20260504011032 | 56 | 240 | 26.0 | 36.0 | 0.00 | 0.00 | 0.00 | 75 | 1003.9 |
| 20260504010026 | 56 | 231 | 22.0 | 28.0 | 0.00 | 0.00 | 0.00 | 79 | 1004.0 |
| 20260504005536 | 56 | 237 | 22.0 | 28.0 | 0.00 | 0.00 | 0.00 | 78 | 1004.0 |
| 20260504005119 | 56 | 241 | 23.0 | 29.0 | 0.00 | 0.00 | 0.00 | 77 | 1003.9 |
| 20260504004555 | 56 | 247 | 25.0 | 29.0 | 0.00 | 0.00 | 0.00 | 76 | 1003.9 |
| 20260504004052 | 57 | 245 | 26.0 | 30.0 | 0.00 | 0.00 | 0.00 | 76 | 1004.1 |
| 20260504003535 | 57 | 234 | 25.0 | 31.0 | 0.00 | 0.00 | 0.00 | 76 | 1004.0 |
| 20260504003026 | 57 | 236 | 26.0 | 31.0 | 0.00 | 0.00 | 0.00 | 76 | 1004.0 |
| 20260504002536 | 57 | 240 | 26.0 | 33.0 | 0.00 | 0.00 | 0.00 | 76 | 1004.0 |
| 20260504002043 | 57 | 243 | 26.0 | 36.0 | 0.00 | 0.00 | 0.00 | 75 | 1004.0 |
| 20260504001558 | 57 | 236 | 28.0 | 36.0 | 0.00 | 0.00 | 0.00 | 75 | 1003.9 |
| 20260504001029 | 57 | 242 | 29.0 | 35.0 | 0.00 | 0.00 | 0.00 | 75 | 1003.8 |
| 20260504000540 | 57 | 233 | 25.0 | 32.0 | 0.00 | 0.00 | 0.00 | 75 | 1003.7 |
| 20260504000027 | 57 | 229 | 25.0 | 31.0 | 0.00 | 0.00 | 0.00 | 76 | 1003.7 |
| 20260503235535 | 57 | 239 | 25.0 | 29.0 | 0.00 | 0.00 | 0.00 | 75 | 1003.7 |
| 20260503235026 | 57 | 240 | 23.0 | 30.0 | 0.00 | 0.00 | 0.00 | 75 | 1003.8 |